FW9915 Weather Reports


time (UTC)temp
C
wind
direction
speed
KPH
gust
KPH
rain 1hr
cm
rain 24hr
cm
rain mn
cm
humidity
%
barometer
mb
20260508063524 11 181 3.2 6.4 0.00 0.00 0.00 99 1016.8
20260508062524 11 125 3.2 6.4 0.00 0.00 0.00 99 1016.7
20260508061524 11 137 1.6 6.4 0.00 0.00 0.00 99 1016.7
20260508060524 11 144 6.4 11.3 0.00 0.00 0.00 99 1016.6
20260508055524 11 143 3.2 6.4 0.00 0.00 0.00 99 1016.6
20260508054536 11 130 4.8 11.3 0.00 0.00 0.00 99 1016.5
20260508053524 12 149 4.8 11.3 0.00 0.00 0.00 99 1016.6
20260508052524 12 150 4.8 11.3 0.00 0.00 0.00 99 1016.4
20260508051524 12 185 1.6 6.4 0.00 0.00 0.00 99 1016.6
20260508050524 11 193 4.8 6.4 0.00 0.00 0.00 99 1016.6
20260508045544 11 180 3.2 6.4 0.00 0.00 0.00 99 1016.4
20260508044544 11 195 4.8 11.3 0.00 0.00 0.00 99 1016.3
20260508043524 11 138 1.6 3.2 0.00 0.00 0.00 99 1016.1
20260508042524 11 162 1.6 3.2 0.00 0.00 0.00 99 1016.2
20260508041556 11 164 1.6 3.2 0.00 0.00 0.00 99 1016.2
20260508040548 11 180 0.0 3.2 0.00 0.00 0.00 99 1016.2
20260508035536 11 201 1.6 3.2 0.00 0.00 0.00 99 1016.2
20260508034524 11 201 1.6 3.2 0.00 0.00 0.00 99 1016.2
20260508033524 11 121 3.2 6.4 0.00 0.00 0.00 99 1016.1
20260508032524 11 180 1.6 3.2 0.00 0.00 0.00 99 1016.1
20260508030544 11 135 3.2 6.4 0.00 0.00 0.00 99 1015.9
20260508025524 11 146 3.2 6.4 0.00 0.00 0.00 99 1015.9
20260508024524 11 135 3.2 6.4 0.00 0.00 0.00 99 1015.8
20260508023604 11 209 1.6 6.4 0.00 0.00 0.00 99 1016.0
20260508022544 11 189 6.4 11.3 0.00 0.00 0.00 99 1016.0
20260508021628 11 199 3.2 6.4 0.00 0.00 0.00 99 1015.9
20260508020524 11 182 6.4 11.3 0.00 0.00 0.00 99 1015.9
20260508015536 11 192 6.4 11.3 0.00 0.00 0.00 99 1016.0
20260508014645 11 193 4.8 11.3 0.00 0.00 0.00 99 1016.0
20260508013524 11 195 6.4 11.3 0.00 0.00 0.00 99 1016.0
20260508012536 10 196 3.2 11.3 0.00 0.00 0.00 99 1016.0
20260508011525 11 200 4.8 6.4 0.00 0.00 0.00 99 1016.0
20260508010524 11 186 4.8 11.3 0.00 0.00 0.00 99 1016.1
20260508005536 11 178 8.0 14.5 0.00 0.00 0.00 99 1016.1
20260508004524 11 188 6.4 11.3 0.00 0.00 0.00 99 1016.2
20260508003548 11 186 6.4 14.5 0.00 0.00 0.00 99 1016.2
20260508002644 11 202 9.7 14.5 0.00 0.00 0.00 99 1016.2
20260508001536 11 199 6.4 11.3 0.00 0.00 0.00 99 1016.2
20260508000524 11 163 3.2 6.4 0.00 0.00 0.00 99 1016.2
20260507235544 11 203 1.6 6.4 0.00 0.00 0.00 99 1016.2
20260507234524 11 146 1.6 6.4 0.00 0.00 0.00 99 1016.2
20260507233524 11 118 3.2 11.3 0.00 0.00 0.00 99 1016.3
20260507232525 11 89 1.6 3.2 0.00 0.00 0.00 99 1016.5
20260507231544 11 135 4.8 6.4 0.00 0.00 0.00 99 1016.5
20260507230544 11 122 3.2 6.4 0.00 0.00 0.00 99 1016.5
20260507225604 11 113 3.2 6.4 0.00 0.00 0.00 99 1016.7
20260507224524 11 132 3.2 6.4 0.00 0.00 0.00 99 1016.7
20260507223536 11 189 6.4 11.3 0.00 0.00 0.00 99 1016.7
20260507222524 11 163 3.2 6.4 0.00 0.00 0.00 99 1016.8
20260507221524 11 161 3.2 6.4 0.00 0.00 0.00 99 1016.9
20260507220524 11 200 4.8 14.5 0.00 0.00 0.00 99 1017.0
20260507215524 11 204 6.4 14.5 0.00 0.00 0.00 99 1017.0
20260507214525 11 203 3.2 6.4 0.00 0.00 0.00 99 1017.0
20260507213544 11 210 3.2 11.3 0.00 0.00 0.00 99 1017.0
20260507212524 11 200 6.4 14.5 0.00 0.00 0.00 99 1017.1
20260507211524 11 193 6.4 11.3 0.00 0.00 0.00 99 1017.1
20260507210548 11 210 3.2 6.4 0.00 0.00 0.00 99 1017.1
20260507205524 11 201 3.2 6.4 0.00 0.00 0.00 99 1017.0
20260507204600 11 212 4.8 11.3 0.00 0.00 0.00 99 1017.1
20260507203548 11 217 4.8 11.3 0.00 0.00 0.00 99 1017.0
20260507202524 11 198 4.8 14.5 0.00 0.00 0.00 99 1016.9
20260507201524 11 199 4.8 11.3 0.00 0.00 0.00 99 1016.9
20260507200524 11 203 3.2 6.4 0.00 0.00 0.00 99 1017.0
20260507195524 11 210 4.8 11.3 0.00 0.00 0.00 99 1017.1
20260507194524 11 190 4.8 11.3 0.00 0.00 0.00 99 1017.1
20260507193605 11 172 4.8 11.3 0.00 0.00 0.00 99 1017.1
20260507192524 11 182 4.8 11.3 0.00 0.00 0.00 99 1017.1
20260507191548 11 210 4.8 11.3 0.00 0.00 0.00 99 1017.1
20260507190524 11 192 3.2 11.3 0.00 0.00 0.00 99 1017.0
20260507185524 11 194 1.6 6.4 0.00 0.00 0.00 99 1017.0
20260507184536 11 187 3.2 6.4 0.00 0.00 0.00 99 1017.0
20260507183524 11 198 1.6 6.4 0.00 0.00 0.00 99 1016.9
20260507182537 11 161 3.2 6.4 0.00 0.00 0.00 98 1016.8
20260507181544 11 167 3.2 6.4 0.00 0.00 0.00 98 1016.7
20260507180537 11 178 3.2 6.4 0.00 0.00 0.00 98 1016.8
20260507175549 11 176 3.2 11.3 0.00 0.00 0.00 97 1016.8
20260507174524 11 199 3.2 6.4 0.00 0.00 0.00 97 1016.7
20260507173524 11 221 4.8 6.4 0.00 0.00 0.00 97 1016.7
20260507172524 11 158 3.2 11.3 0.00 0.00 0.00 97 1016.6
20260507171524 11 150 3.2 11.3 0.00 0.00 0.00 97 1016.6
20260507170524 11 197 3.2 6.4 0.00 0.00 0.00 97 1016.7
20260507165536 11 168 4.8 11.3 0.00 0.00 0.00 96 1016.6
20260507164524 11 192 4.8 11.3 0.00 0.00 0.00 95 1016.7
20260507163524 11 204 3.2 11.3 0.00 0.00 0.00 95 1016.8
20260507162524 11 210 3.2 6.4 0.00 0.00 0.00 95 1016.8
20260507161524 12 174 3.2 6.4 0.00 0.00 0.00 94 1016.8
20260507160524 11 131 4.8 14.5 0.00 0.00 0.00 94 1016.9
20260507155624 12 180 4.8 11.3 0.00 0.00 0.00 94 1016.9
20260507154524 12 145 3.2 14.5 0.00 0.00 0.00 93 1016.9
20260507153524 12 167 4.8 11.3 0.00 0.00 0.00 94 1016.9
20260507152607 12 132 6.4 11.3 0.00 0.00 0.00 93 1017.0
20260507151620 12 131 6.4 11.3 0.00 0.00 0.00 92 1017.0
20260507150544 12 134 9.7 17.7 0.00 0.00 0.00 92 1017.0
20260507145524 12 139 9.7 17.7 0.00 0.00 0.00 92 1017.1
20260507144524 12 127 9.7 14.5 0.00 0.00 0.00 91 1017.2
20260507143524 12 133 4.8 11.3 0.00 0.00 0.00 92 1017.3
20260507142548 12 135 8.0 14.5 0.00 0.00 0.00 92 1017.3
20260507141524 12 134 8.0 14.5 0.00 0.00 0.00 92 1017.3
20260507140524 12 149 8.0 14.5 0.00 0.00 0.00 92 1017.4
20260507135524 12 148 6.4 14.5 0.00 0.00 0.00 91 1017.4
20260507134524 12 134 9.7 17.7 0.00 0.00 0.00 90 1017.4
20260507133524 12 149 9.7 24.1 0.00 0.00 0.00 88 1017.4
20260507132536 12 138 9.7 14.5 0.00 0.00 0.00 89 1017.4
20260507131600 13 148 8.0 14.5 0.00 0.00 0.00 86 1017.5
20260507130524 13 217 6.4 17.7 0.00 0.00 0.00 86 1017.5
20260507125524 12 168 6.4 14.5 0.00 0.00 0.00 87 1017.6
20260507124524 12 186 6.4 14.5 0.00 0.00 0.00 88 1017.6
20260507123524 12 141 11.3 17.7 0.00 0.00 0.00 88 1017.7
20260507122524 12 132 11.3 17.7 0.00 0.00 0.00 87 1017.8
20260507121524 12 129 9.7 14.5 0.00 0.00 0.00 87 1017.9
20260507120548 12 138 9.7 17.7 0.00 0.00 0.00 87 1018.0
20260507115524 12 128 9.7 17.7 0.00 0.00 0.00 86 1018.1
20260507114525 12 168 6.4 14.5 0.00 0.00 0.00 88 1018.1
20260507113537 12 138 9.7 17.7 0.00 0.00 0.00 87 1018.1
20260507112524 13 206 8.0 14.5 0.00 0.00 0.00 85 1018.1
20260507111608 12 130 9.7 14.5 0.00 0.00 0.00 88 1018.1
20260507110536 12 145 9.7 24.1 0.00 0.00 0.00 86 1018.1
20260507105544 12 137 9.7 17.7 0.00 0.00 0.00 87 1018.1
20260507104524 12 128 9.7 17.7 0.00 0.00 0.00 87 1018.1
20260507103524 12 130 11.3 27.4 0.00 0.00 0.00 87 1018.2
20260507102544 12 177 8.0 17.7 0.00 0.00 0.00 87 1018.2
20260507101545 12 133 9.7 17.7 0.00 0.00 0.00 87 1018.2
20260507100557 12 179 8.0 17.7 0.00 0.00 0.00 87 1018.2
20260507095524 12 155 8.0 14.5 0.00 0.00 0.00 88 1018.2
20260507094524 12 138 9.7 17.7 0.00 0.00 0.00 88 1018.2
20260507093525 12 150 6.4 17.7 0.00 0.00 0.00 87 1018.2
20260507092524 12 160 8.0 17.7 0.00 0.00 0.00 88 1018.1
20260507091524 12 121 9.7 14.5 0.00 0.00 0.00 89 1018.0
20260507090524 12 157 8.0 17.7 0.00 0.00 0.00 88 1018.1
20260507085544 12 135 6.4 14.5 0.00 0.00 0.00 87 1018.2
20260507084524 12 172 8.0 14.5 0.00 0.00 0.00 88 1018.1
20260507083544 12 190 6.4 17.7 0.00 0.00 0.00 87 1018.1
20260507082536 12 167 6.4 14.5 0.00 0.00 0.00 86 1018.0
20260507081537 12 186 8.0 14.5 0.00 0.00 0.00 86 1017.9
20260507080524 11 138 9.7 17.7 0.00 0.00 0.00 89 1018.0
20260507075609 12 145 8.0 14.5 0.00 0.00 0.00 87 1018.0
20260507074524 12 191 8.0 14.5 0.00 0.00 0.00 87 1018.0
20260507073524 12 148 8.0 14.5 0.00 0.00 0.00 88 1018.0
20260507072524 12 187 8.0 14.5 0.00 0.00 0.00 87 1018.0
20260507071524 12 153 8.0 17.7 0.00 0.00 0.00 89 1017.9
20260507070544 12 146 8.0 17.7 0.00 0.00 0.00 88 1018.0
20260507065524 12 194 6.4 14.5 0.00 0.00 0.00 89 1018.0
20260507064525 12 180 8.0 14.5 0.00 0.00 0.00 88 1018.0